Time,TemperatureF,DewpointF,PressureIn,WindDirection,WindDirectionDegrees,WindSpeedMPH,WindSpeedGustMPH,Humidity,HourlyPrecipIn,Conditions,Clouds,dailyrainin,SoftwareType,DateUTC
2013-02-09 00:09:00,16.0,7.2,30.29,NNW,337,0.0,0.0,68,0.00,,,0.00,open2300-1.11,2013-02-09 06:09:00,
2013-02-09 00:17:00,15.8,7.0,30.29,NNW,337,0.0,0.0,68,0.00,,,0.00,open2300-1.11,2013-02-09 06:17:00,
2013-02-09 00:27:00,16.0,7.2,30.29,NNW,337,0.0,0.0,68,0.00,,,0.00,open2300-1.11,2013-02-09 06:27:00,
2013-02-09 00:37:00,15.8,7.0,30.30,NNW,337,0.0,0.0,68,0.00,,,0.00,open2300-1.11,2013-02-09 06:37:00,
2013-02-09 00:47:00,15.8,7.0,30.29,NNW,337,0.0,0.0,68,0.00,,,0.00,open2300-1.11,2013-02-09 06:47:00,
2013-02-09 00:57:00,15.6,6.8,30.29,NNW,337,0.0,0.0,68,0.00,,,0.00,open2300-1.11,2013-02-09 06:57:00,
2013-02-09 01:07:00,15.6,6.8,30.29,NNW,337,0.0,0.0,68,0.00,,,0.00,open2300-1.11,2013-02-09 07:07:00,
2013-02-09 01:17:00,15.6,6.8,30.29,NNW,337,0.0,0.0,68,0.00,,,0.00,open2300-1.11,2013-02-09 07:17:00,
2013-02-09 01:27:00,15.4,6.7,30.29,NNW,337,0.0,0.0,68,0.00,,,0.00,open2300-1.11,2013-02-09 07:27:00,
2013-02-09 01:37:00,15.3,6.5,30.28,NNW,337,0.0,0.0,68,0.00,,,0.00,open2300-1.11,2013-02-09 07:37:00,
2013-02-09 01:47:00,15.1,6.4,30.28,NNW,337,0.0,0.0,68,0.00,,,0.00,open2300-1.11,2013-02-09 07:47:00,
2013-02-09 01:57:00,14.9,6.2,30.29,NNW,337,0.0,0.0,68,0.00,,,0.00,open2300-1.11,2013-02-09 07:57:00,
2013-02-09 02:07:00,14.9,6.6,30.29,NNW,337,0.0,0.0,69,0.00,,,0.00,open2300-1.11,2013-02-09 08:07:00,
2013-02-09 02:17:00,15.1,6.7,30.28,NNW,337,0.0,0.0,69,0.00,,,0.00,open2300-1.11,2013-02-09 08:17:00,
2013-02-09 02:27:00,15.1,6.7,30.28,NNW,337,0.0,0.0,69,0.00,,,0.00,open2300-1.11,2013-02-09 08:27:00,
2013-02-09 02:37:00,15.1,6.7,30.28,NNW,337,0.0,0.0,69,0.00,,,0.00,open2300-1.11,2013-02-09 08:37:00,
2013-02-09 02:47:00,15.3,7.2,30.28,NNW,337,0.0,0.0,70,0.00,,,0.00,open2300-1.11,2013-02-09 08:47:00,
2013-02-09 02:57:00,15.4,7.4,30.27,NNW,337,0.0,0.0,70,0.00,,,0.00,open2300-1.11,2013-02-09 08:57:00,
2013-02-09 03:07:00,15.4,7.4,30.25,NNW,337,0.0,0.0,70,0.00,,,0.00,open2300-1.11,2013-02-09 09:07:00,
2013-02-09 03:17:00,15.6,7.5,30.26,NNW,337,0.0,0.0,70,0.00,,,0.00,open2300-1.11,2013-02-09 09:17:00,
2013-02-09 03:27:00,16.0,7.9,30.26,NNW,337,0.0,0.0,70,0.00,,,0.00,open2300-1.11,2013-02-09 09:27:00,
2013-02-09 03:37:00,16.0,7.9,30.26,NNW,337,0.0,0.0,70,0.00,,,0.00,open2300-1.11,2013-02-09 09:37:00,
2013-02-09 03:47:00,16.3,8.2,30.25,NNW,337,0.0,0.0,70,0.00,,,0.00,open2300-1.11,2013-02-09 09:47:00,
2013-02-09 03:57:00,16.5,8.7,30.24,NNW,337,0.0,0.0,71,0.00,,,0.00,open2300-1.11,2013-02-09 09:57:00,
2013-02-09 04:07:00,17.4,9.6,30.23,NNW,337,0.0,0.0,71,0.00,,,0.00,open2300-1.11,2013-02-09 10:07:00,
2013-02-09 04:17:00,18.3,10.7,30.23,NNW,337,0.0,0.0,72,0.00,,,0.00,open2300-1.11,2013-02-09 10:17:00,
2013-02-09 04:27:00,19.2,11.9,30.23,NNW,337,0.0,0.0,73,0.00,,,0.00,open2300-1.11,2013-02-09 10:27:00,
2013-02-09 04:37:00,19.8,12.4,30.23,NNW,337,0.0,0.0,73,0.00,,,0.00,open2300-1.11,2013-02-09 10:37:00,
2013-02-09 04:47:00,20.1,12.8,30.22,NNW,337,0.0,0.0,73,0.00,,,0.00,open2300-1.11,2013-02-09 10:47:00,
2013-02-09 04:57:00,20.8,13.5,30.22,NNW,337,0.0,0.0,73,0.00,,,0.00,open2300-1.11,2013-02-09 10:57:00,
2013-02-09 05:07:00,21.0,14.0,30.21,NNW,337,0.0,0.0,74,0.00,,,0.00,open2300-1.11,2013-02-09 11:07:00,
2013-02-09 05:17:00,21.4,14.3,30.21,NNW,337,0.0,0.0,74,0.00,,,0.00,open2300-1.11,2013-02-09 11:17:00,
2013-02-09 05:27:00,21.6,14.5,30.21,NNW,337,0.0,0.0,74,0.00,,,0.00,open2300-1.11,2013-02-09 11:27:00,
2013-02-09 05:37:00,21.7,14.7,30.21,NNW,337,0.0,0.0,74,0.00,,,0.00,open2300-1.11,2013-02-09 11:37:00,
2013-02-09 05:47:00,21.9,14.9,30.21,NNW,337,0.0,0.0,74,0.00,,,0.00,open2300-1.11,2013-02-09 11:47:00,
2013-02-09 05:57:00,21.9,14.9,30.20,NNW,337,0.0,0.0,74,0.00,,,0.00,open2300-1.11,2013-02-09 11:57:00,
2013-02-09 06:07:00,22.1,15.0,30.20,NNW,337,0.0,0.0,74,0.00,,,0.00,open2300-1.11,2013-02-09 12:07:00,
2013-02-09 06:17:00,22.3,15.5,30.20,NNW,337,0.0,0.0,75,0.00,,,0.00,open2300-1.11,2013-02-09 12:17:00,
2013-02-09 06:27:00,22.5,15.7,30.19,NNW,337,0.0,0.0,75,0.00,,,0.00,open2300-1.11,2013-02-09 12:27:00,
2013-02-09 06:37:00,22.6,15.9,30.19,NNW,337,0.0,0.0,75,0.00,,,0.00,open2300-1.11,2013-02-09 12:37:00,
2013-02-09 06:47:00,22.6,15.9,30.18,NNW,337,0.0,0.0,75,0.00,,,0.00,open2300-1.11,2013-02-09 12:47:00,
2013-02-09 06:57:00,22.8,16.1,30.19,NNW,337,0.0,0.0,75,0.00,,,0.00,open2300-1.11,2013-02-09 12:57:00,
2013-02-09 07:07:00,22.8,16.1,30.18,NNW,337,0.0,0.0,75,0.00,,,0.00,open2300-1.11,2013-02-09 13:07:00,
2013-02-09 07:17:00,23.0,16.2,30.19,NNW,337,0.0,0.0,75,0.00,,,0.00,open2300-1.11,2013-02-09 13:17:00,
2013-02-09 07:27:00,23.2,16.7,30.19,NNW,337,0.0,0.0,76,0.00,,,0.00,open2300-1.11,2013-02-09 13:27:00,
2013-02-09 07:33:00,23.2,16.7,30.18,NNW,337,14.1,114.1,76,0.00,,,0.00,open2300-1.11,2013-02-09 13:33:00,
2013-02-09 07:47:00,23.4,16.9,30.19,NNW,337,0.0,0.0,76,0.00,,,0.00,open2300-1.11,2013-02-09 13:47:00,
2013-02-09 07:57:00,23.5,17.1,30.18,NNW,337,0.0,0.0,76,0.00,,,0.00,open2300-1.11,2013-02-09 13:57:00,
2013-02-09 08:07:00,176.5,99.9,30.18,NNW,337,0.0,0.0,100,0.00,,,0.00,open2300-1.11,2013-02-09 14:07:00,
2013-02-09 08:17:00,176.5,99.9,30.18,NNW,337,0.0,0.0,100,0.00,,,0.00,open2300-1.11,2013-02-09 14:17:00,
2013-02-09 08:27:00,23.7,17.2,30.18,NNW,337,0.0,0.0,76,0.00,,,0.00,open2300-1.11,2013-02-09 14:27:00,
2013-02-09 08:39:00,23.9,17.4,30.18,NNW,337,0.0,0.0,76,0.00,,,0.00,open2300-1.11,2013-02-09 14:39:00,
2013-02-09 08:47:00,176.9,99.9,30.18,NNW,337,0.0,0.0,100,0.00,,,0.00,open2300-1.11,2013-02-09 14:47:00,
2013-02-09 08:57:00,176.9,99.9,30.18,NNW,337,0.0,0.0,100,0.00,,,0.00,open2300-1.11,2013-02-09 14:57:00,
2013-02-09 09:07:00,176.9,99.9,30.18,NNW,337,0.0,0.0,100,0.00,,,0.00,open2300-1.11,2013-02-09 15:07:00,
2013-02-09 09:17:00,176.9,99.9,30.16,NNW,337,0.0,0.0,100,0.00,,,0.00,open2300-1.11,2013-02-09 15:17:00,
2013-02-09 09:27:00,25.0,18.5,30.16,NNW,337,0.0,0.0,76,0.00,,,0.00,open2300-1.11,2013-02-09 15:27:00,
2013-02-09 09:37:00,25.0,18.5,30.16,NNW,337,0.0,0.0,76,0.00,,,0.00,open2300-1.11,2013-02-09 15:37:00,
2013-02-09 09:47:00,25.2,18.6,30.16,NNW,337,0.0,0.0,76,0.00,,,0.00,open2300-1.11,2013-02-09 15:47:00,
2013-02-09 09:57:00,25.3,18.8,30.16,NNW,337,0.0,0.0,76,0.00,,,0.00,open2300-1.11,2013-02-09 15:57:00,
2013-02-09 10:07:00,25.5,18.6,30.15,NNW,337,0.0,0.0,75,0.00,,,0.00,open2300-1.11,2013-02-09 16:07:00,
2013-02-09 10:17:00,25.5,19.0,30.15,NNW,337,0.0,0.0,76,0.00,,,0.00,open2300-1.11,2013-02-09 16:17:00,
2013-02-09 10:27:00,176.7,99.9,30.15,NNW,337,0.0,0.0,100,0.00,,,0.00,open2300-1.11,2013-02-09 16:27:00,
2013-02-09 10:37:00,176.7,99.9,30.16,NNW,337,0.0,0.0,100,0.00,,,0.00,open2300-1.11,2013-02-09 16:37:00,
2013-02-09 10:47:00,176.7,99.9,30.15,NNW,337,0.0,0.0,100,0.00,,,0.00,open2300-1.11,2013-02-09 16:47:00,
2013-02-09 10:57:00,26.2,19.3,30.15,NNW,337,0.0,0.0,75,0.00,,,0.00,open2300-1.11,2013-02-09 16:57:00,
2013-02-09 11:07:00,26.4,19.5,30.15,NNW,337,0.0,0.0,75,0.00,,,0.00,open2300-1.11,2013-02-09 17:07:00,
2013-02-09 11:17:00,26.4,19.5,30.15,NNW,337,0.0,0.0,75,0.00,,,0.00,open2300-1.11,2013-02-09 17:17:00,
2013-02-09 11:28:00,26.6,19.7,30.14,NNW,337,0.0,0.0,75,0.00,,,0.00,open2300-1.11,2013-02-09 17:28:00,
2013-02-09 11:37:00,27.0,20.0,30.14,NNW,337,0.0,0.0,75,0.00,,,0.00,open2300-1.11,2013-02-09 17:37:00,
2013-02-09 11:47:00,27.1,20.2,30.14,NNW,337,0.0,0.0,75,0.00,,,0.00,open2300-1.11,2013-02-09 17:47:00,
2013-02-09 11:57:00,27.3,20.4,30.13,NNW,337,0.0,0.0,75,0.00,,,0.00,open2300-1.11,2013-02-09 17:57:00,
2013-02-09 12:07:00,27.5,20.6,30.13,NNW,337,0.0,0.0,75,0.00,,,0.00,open2300-1.11,2013-02-09 18:07:00,
2013-02-09 12:17:00,27.7,20.8,30.13,NNW,337,0.0,0.0,75,0.00,,,0.00,open2300-1.11,2013-02-09 18:17:00,
2013-02-09 12:27:00,28.0,21.1,30.12,NNW,337,0.0,0.0,75,0.00,,,0.00,open2300-1.11,2013-02-09 18:27:00,
2013-02-09 12:37:00,28.2,21.3,30.11,NNW,337,0.0,0.0,75,0.00,,,0.00,open2300-1.11,2013-02-09 18:37:00,
2013-02-09 12:47:00,28.2,21.0,30.11,NNW,337,0.0,0.0,74,0.00,,,0.00,open2300-1.11,2013-02-09 18:47:00,
2013-02-09 12:57:00,177.6,99.9,30.11,NNW,337,0.0,0.0,100,0.00,,,0.00,open2300-1.11,2013-02-09 18:57:00,
2013-02-09 13:07:00,177.6,99.9,30.10,NNW,337,0.0,0.0,100,0.00,,,0.00,open2300-1.11,2013-02-09 19:07:00,
2013-02-09 13:17:00,177.6,99.9,30.10,NNW,337,0.0,0.0,100,0.00,,,0.00,open2300-1.11,2013-02-09 19:17:00,
2013-02-09 13:27:00,177.6,99.9,30.10,NNW,337,0.0,0.0,100,0.00,,,0.00,open2300-1.11,2013-02-09 19:27:00,
2013-02-09 13:37:00,177.6,99.9,30.10,NNW,337,0.0,0.0,100,0.00,,,0.00,open2300-1.11,2013-02-09 19:37:00,
2013-02-09 13:47:00,29.7,22.3,30.10,NNW,337,0.0,0.0,74,0.00,,,0.00,open2300-1.11,2013-02-09 19:47:00,
2013-02-09 13:57:00,29.8,22.2,30.09,NNW,337,0.0,0.0,73,0.00,,,0.00,open2300-1.11,2013-02-09 19:57:00,
2013-02-09 14:07:00,29.8,22.2,30.08,NNW,337,0.0,0.0,73,0.00,,,0.00,open2300-1.11,2013-02-09 20:07:00,
2013-02-09 14:17:00,30.0,22.4,30.09,NNW,337,0.0,0.0,73,0.00,,,0.00,open2300-1.11,2013-02-09 20:17:00,
2013-02-09 14:27:00,30.0,22.4,30.08,NNW,337,0.0,0.0,73,0.00,,,0.00,open2300-1.11,2013-02-09 20:27:00,
2013-02-09 14:37:00,30.0,22.4,30.08,NNW,337,0.0,0.0,73,0.00,,,0.00,open2300-1.11,2013-02-09 20:37:00,
2013-02-09 14:47:00,30.0,22.4,30.07,NNW,337,0.0,0.0,73,0.00,,,0.00,open2300-1.11,2013-02-09 20:47:00,
2013-02-09 14:57:00,177.6,99.9,30.07,NNW,337,0.0,0.0,100,0.00,,,0.00,open2300-1.11,2013-02-09 20:57:00,
2013-02-09 15:07:00,177.6,99.9,30.07,NNW,337,0.0,0.0,100,0.00,,,0.00,open2300-1.11,2013-02-09 21:07:00,
2013-02-09 15:17:00,177.6,99.9,30.06,NNW,337,0.0,0.0,100,0.00,,,0.00,open2300-1.11,2013-02-09 21:17:00,
2013-02-09 15:27:00,30.0,22.4,30.06,NNW,337,0.0,0.0,73,0.00,,,0.00,open2300-1.11,2013-02-09 21:27:00,
2013-02-09 15:37:00,30.0,22.4,30.06,NNW,337,0.0,0.0,73,0.00,,,0.00,open2300-1.11,2013-02-09 21:37:00,
2013-02-09 15:47:00,177.6,99.9,30.05,NNW,337,0.0,0.0,100,0.00,,,0.00,open2300-1.11,2013-02-09 21:47:00,
2013-02-09 15:57:00,177.6,99.9,30.05,NNW,337,0.0,0.0,100,0.00,,,0.00,open2300-1.11,2013-02-09 21:57:00,
2013-02-09 16:07:00,177.6,99.9,30.05,NNW,337,0.0,0.0,100,0.00,,,0.00,open2300-1.11,2013-02-09 22:07:00,
2013-02-09 16:17:00,30.0,22.4,30.05,NNW,337,0.0,0.0,73,0.00,,,0.00,open2300-1.11,2013-02-09 22:17:00,
2013-02-09 16:27:00,30.0,22.4,30.05,NNW,337,0.0,0.0,73,0.00,,,0.00,open2300-1.11,2013-02-09 22:27:00,
2013-02-09 16:37:00,29.8,22.2,30.04,NNW,337,0.0,0.0,73,0.00,,,0.00,open2300-1.11,2013-02-09 22:37:00,
2013-02-09 16:47:00,29.8,22.2,30.05,NNW,337,0.0,0.0,73,0.00,,,0.00,open2300-1.11,2013-02-09 22:47:00,
2013-02-09 16:57:00,29.8,22.2,30.04,NNW,337,0.0,0.0,73,0.00,,,0.00,open2300-1.11,2013-02-09 22:57:00,
2013-02-09 17:07:00,177.4,99.9,30.04,NNW,337,0.0,0.0,100,0.00,,,0.00,open2300-1.11,2013-02-09 23:07:00,
2013-02-09 17:17:00,177.4,99.9,30.04,NNW,337,0.0,0.0,100,0.00,,,0.00,open2300-1.11,2013-02-09 23:17:00,
2013-02-09 17:27:00,177.4,99.9,30.04,NNW,337,0.0,0.0,100,0.00,,,0.00,open2300-1.11,2013-02-09 23:27:00,
2013-02-09 17:37:00,177.4,99.9,30.03,NNW,337,0.0,0.0,100,0.00,,,0.00,open2300-1.11,2013-02-09 23:37:00,
2013-02-09 17:47:00,177.4,99.9,30.03,NNW,337,0.0,0.0,100,0.00,,,0.00,open2300-1.11,2013-02-09 23:47:00,
2013-02-09 17:57:00,29.5,22.2,30.03,NNW,337,0.0,0.0,74,0.00,,,0.00,open2300-1.11,2013-02-09 23:57:00,
2013-02-09 18:07:00,29.5,22.2,30.03,NNW,337,0.0,0.0,74,0.00,,,0.00,open2300-1.11,2013-02-10 00:07:00,
2013-02-09 18:17:00,29.5,22.2,30.04,NNW,337,0.0,0.0,74,0.00,,,0.00,open2300-1.11,2013-02-10 00:17:00,
2013-02-09 18:27:00,177.1,99.9,30.03,NNW,337,0.0,0.0,100,0.00,,,0.00,open2300-1.11,2013-02-10 00:27:00,
2013-02-09 18:37:00,177.1,99.9,30.03,NNW,337,0.0,0.0,100,0.00,,,0.00,open2300-1.11,2013-02-10 00:37:00,
2013-02-09 18:47:00,177.1,99.9,30.03,NNW,337,0.0,0.0,100,0.00,,,0.00,open2300-1.11,2013-02-10 00:47:00,
2013-02-09 18:57:00,177.1,99.9,30.02,NNW,337,0.0,0.0,100,0.00,,,0.00,open2300-1.11,2013-02-10 00:57:00,
2013-02-09 19:07:00,177.1,99.9,30.02,NNW,337,0.0,0.0,100,0.00,,,0.00,open2300-1.11,2013-02-10 01:07:00,
2013-02-09 19:17:00,29.5,22.2,30.02,NNW,337,0.0,0.0,74,0.00,,,0.00,open2300-1.11,2013-02-10 01:17:00,
2013-02-09 19:27:00,29.5,22.2,30.02,NNW,337,0.0,0.0,74,0.00,,,0.00,open2300-1.11,2013-02-10 01:27:00,
2013-02-09 19:37:00,29.5,22.2,30.02,NNW,337,0.0,0.0,74,0.00,,,0.00,open2300-1.11,2013-02-10 01:37:00,
2013-02-09 19:47:00,29.5,22.2,30.02,NNW,337,0.0,0.0,74,0.00,,,0.00,open2300-1.11,2013-02-10 01:47:00,
2013-02-09 19:57:00,29.5,22.2,30.03,NNW,337,0.0,0.0,74,0.00,,,0.00,open2300-1.11,2013-02-10 01:57:00,
2013-02-09 20:07:00,29.5,22.2,30.02,NNW,337,0.0,0.0,74,0.00,,,0.00,open2300-1.11,2013-02-10 02:07:00,
2013-02-09 20:17:00,177.1,99.9,30.03,NNW,337,0.0,0.0,100,0.00,,,0.00,open2300-1.11,2013-02-10 02:17:00,
2013-02-09 20:27:00,177.1,99.9,30.03,NNW,337,0.0,0.0,100,0.00,,,0.00,open2300-1.11,2013-02-10 02:27:00,
2013-02-09 20:37:00,177.1,99.9,30.02,NNW,337,0.0,0.0,100,0.00,,,0.00,open2300-1.11,2013-02-10 02:37:00,
2013-02-09 20:47:00,177.1,99.9,30.02,NNW,337,0.0,0.0,100,0.00,,,0.00,open2300-1.11,2013-02-10 02:47:00,
2013-02-09 20:57:00,29.3,22.3,30.02,NNW,337,0.0,0.0,75,0.00,,,0.00,open2300-1.11,2013-02-10 02:57:00,
2013-02-09 21:07:00,29.5,22.5,30.03,NNW,337,0.0,0.0,75,0.00,,,0.00,open2300-1.11,2013-02-10 03:07:00,
2013-02-09 21:17:00,29.3,22.3,30.02,NNW,337,0.0,0.0,75,0.00,,,0.00,open2300-1.11,2013-02-10 03:17:00,
2013-02-09 21:27:00,29.3,22.3,30.02,NNW,337,0.0,0.0,75,0.00,,,0.00,open2300-1.11,2013-02-10 03:27:00,
2013-02-09 21:37:00,29.3,22.3,30.01,NNW,337,0.0,0.0,75,0.00,,,0.00,open2300-1.11,2013-02-10 03:37:00,
2013-02-09 21:47:00,176.9,99.9,30.01,NNW,337,0.0,0.0,100,0.00,,,0.00,open2300-1.11,2013-02-10 03:47:00,
2013-02-09 21:57:00,176.9,99.9,30.01,NNW,337,0.0,0.0,100,0.00,,,0.00,open2300-1.11,2013-02-10 03:57:00,
2013-02-09 22:07:00,29.3,22.3,30.01,NNW,337,0.0,0.0,75,0.00,,,0.00,open2300-1.11,2013-02-10 04:07:00,
2013-02-09 22:17:00,29.3,22.3,30.00,NNW,337,0.0,0.0,75,0.00,,,0.00,open2300-1.11,2013-02-10 04:17:00,
2013-02-09 22:27:00,176.9,99.9,30.00,NNW,337,0.0,0.0,100,0.00,,,0.00,open2300-1.11,2013-02-10 04:27:00,
2013-02-09 22:37:00,176.9,99.9,30.00,NNW,337,0.0,0.0,100,0.00,,,0.00,open2300-1.11,2013-02-10 04:37:00,
2013-02-09 22:47:00,176.9,99.9,30.00,NNW,337,0.0,0.0,100,0.00,,,0.00,open2300-1.11,2013-02-10 04:47:00,
2013-02-09 22:57:00,176.9,99.9,29.99,NNW,337,0.0,0.0,100,0.00,,,0.00,open2300-1.11,2013-02-10 04:57:00,
2013-02-09 23:07:00,28.9,22.0,30.00,NNW,337,0.0,0.0,75,0.00,,,0.00,open2300-1.11,2013-02-10 05:07:00,
2013-02-09 23:17:00,28.9,22.0,29.99,NNW,337,0.0,0.0,75,0.00,,,0.00,open2300-1.11,2013-02-10 05:17:00,
2013-02-09 23:27:00,28.9,22.0,30.00,NNW,337,0.0,0.0,75,0.00,,,0.00,open2300-1.11,2013-02-10 05:27:00,
2013-02-09 23:37:00,28.8,21.8,30.00,NNW,337,0.0,0.0,75,0.00,,,0.00,open2300-1.11,2013-02-10 05:37:00,
2013-02-09 23:47:00,28.8,21.8,30.00,NNW,337,0.0,0.0,75,0.00,,,0.00,open2300-1.11,2013-02-10 05:47:00,
2013-02-09 23:57:00,28.8,21.8,30.00,NNW,337,0.0,0.0,75,0.00,,,0.00,open2300-1.11,2013-02-10 05:57:00,